Weather History for Junction, TX

Change the Weather History Date:

Saturday, February 9, 2013

  Actual Average Record
Temperature  
Mean Temperature 62 °F -  
Max Temperature 69 °F 60 °F 84 °F (1999)
Min Temperature 55 °F 35 °F 17 °F (2011)
Degree Days  
Heating Degree Days 3    
Growing Degree Days 12 (Base 50)    
Moisture  
Dew Point 51 °F    
Average Humidity 68    
Maximum Humidity 81    
Minimum Humidity 38    
Precipitation  
Precipitation 0.00 in - - ()
Sea Level Pressure  
Sea Level Pressure 29.82 in    
Wind  
Wind Speed 10 mph (SSE)    
Max Wind Speed 20 mph    
Max Gust Speed 31 mph    
Visibility 7 miles    
Events Rain    
Averages and records for this station are not official NWS values.
T = Trace of Precipitation, MM = Missing Value Source: NWS Daily Summary

Daily Weather History Graph

Daily Weather History Graph

Search for Another Location

Airport:

Trip Planner

Search our weather history database for the weather conditions in past years. The results will help you decide how hot, cold, wet, or windy it might be!

Date:

Astronomy

Feb. 09, 2013 Rise Set
Actual Time 7:24 AM CST 6:22 PM CST
Civil Twilight 6:59 AM CST 6:47 PM CST
Nautical Twilight 6:31 AM CST 7:15 PM CST
Astronomical Twilight 6:02 AM CST 7:44 PM CST
Moon 6:38 AM CST (2/9) 6:04 PM CST (2/9)
Length of Visible Light 11h 47m
Length of Day
10h 58m
Waning Crescent, 0% of the Moon is Illuminated
Feb 9
Waning Crescent
Feb 10
New
Feb 17
First Quarter
Feb 25
Full
Mar 4
Last Quarter

Hourly Weather History & Observations

Time (CST) Temp. Dew Point Humidity Pressure Visibility Wind Dir Wind Speed Gust Speed Precip Events Conditions
12:51 AM 53.1 °F 28.0 °F 38% 29.98 in 9.0 mi ESE 6.9 mph - N/A   Partly Cloudy
1:51 AM 54.0 °F 28.9 °F 38% 29.99 in 9.0 mi SE 4.6 mph - N/A   Overcast
2:51 AM 54.0 °F 28.9 °F 38% 29.96 in 9.0 mi ESE 9.2 mph - N/A   Scattered Clouds
3:51 AM 54.0 °F 34.0 °F 47% 29.94 in 9.0 mi ESE 10.4 mph - N/A   Mostly Cloudy
4:51 AM 55.0 °F 37.9 °F 53% 29.94 in 9.0 mi ESE 6.9 mph - N/A   Overcast
5:51 AM 55.0 °F 39.9 °F 57% 29.93 in 9.0 mi SE 4.6 mph - N/A   Overcast
6:51 AM 55.0 °F 43.0 °F 64% 29.91 in 9.0 mi SE 9.2 mph - N/A   Overcast
7:51 AM 55.9 °F 48.0 °F 75% 29.92 in 6.0 mi SSE 13.8 mph 20.7 mph N/A   Haze
7:59 AM 55.4 °F 48.2 °F 77% 29.98 in 6.0 mi SSE 16.1 mph 20.7 mph N/A   Haze
8:51 AM 57.0 °F 48.9 °F 74% 29.91 in 6.0 mi SSE 10.4 mph - N/A   Haze
9:51 AM 57.0 °F 50.0 °F 77% 29.90 in 6.0 mi SSE 12.7 mph 21.9 mph N/A   Haze
10:51 AM 59.0 °F 52.0 °F 78% 29.89 in 7.0 mi SSE 12.7 mph - N/A   Overcast
11:51 AM 62.1 °F 54.0 °F 75% 29.86 in 8.0 mi South 9.2 mph 17.3 mph N/A   Overcast
12:27 PM 62.6 °F 55.4 °F 77% 29.90 in 7.0 mi South 9.2 mph 26.5 mph N/A   Overcast
12:51 PM 64.0 °F 55.0 °F 73% 29.82 in 7.0 mi South 19.6 mph 31.1 mph N/A   Overcast
1:51 PM 64.9 °F 55.9 °F 73% 29.77 in 7.0 mi South 16.1 mph 23.0 mph N/A   Overcast
2:51 PM 66.0 °F 57.0 °F 73% 29.73 in 7.0 mi South 12.7 mph 25.3 mph N/A   Overcast
3:51 PM 66.0 °F 57.0 °F 73% 29.70 in 6.0 mi South 15.0 mph 26.5 mph N/A   Haze
4:51 PM 66.0 °F 57.0 °F 73% 29.69 in 6.0 mi South 13.8 mph 23.0 mph N/A   Haze
5:51 PM 64.9 °F 57.9 °F 78% 29.68 in 6.0 mi South 12.7 mph 19.6 mph N/A   Haze
6:51 PM 66.0 °F 57.9 °F 75% 29.69 in 7.0 mi South 10.4 mph - N/A   Overcast
7:51 PM 66.0 °F 57.9 °F 75% 29.69 in 7.0 mi SSE 9.2 mph 16.1 mph N/A   Overcast
8:51 PM 66.9 °F 60.1 °F 79% 29.69 in 6.0 mi South 4.6 mph - N/A   Haze
9:51 PM 66.9 °F 60.1 °F 79% 29.69 in 6.0 mi SSE 6.9 mph - N/A   Haze
10:14 PM 68.0 °F 60.8 °F 78% 29.77 in 6.0 mi South 19.6 mph 24.2 mph 0.00 in Rain Light Rain
10:51 PM 68.0 °F 62.1 °F 81% 29.67 in 7.0 mi South 16.1 mph 24.2 mph 0.00 in   Partly Cloudy
11:51 PM 68.0 °F 62.1 °F 81% 29.68 in 6.0 mi South 15.0 mph - N/A   Haze